Location: Date Creek
(34.2167°N, 113.0301°W)
Time: 17:14:41
(UTC-07:00)

OTV 5 (USA 277) - Visible Passes

Search period start: 19 November 2017 00:00
Search period end: 29 November 2017 00:00
Orbit: 404 x 417 km, 43.0° (Epoch: 07 September)

Date Brightness Start Highest point End Pass type
(mag) Time Alt. Az. Time Alt. Az. Time Alt. Az.
19 Nov ? 05:21:27 29° NNE 05:21:27 29° NNE 05:24:01 10° E visible
20 Nov ? 06:05:42 25° WNW 06:07:27 80° SSW 06:10:43 10° ESE visible
21 Nov ? 05:17:14 43° E 05:17:14 43° E 05:19:38 10° ESE visible
22 Nov ? 06:01:36 24° WSW 06:02:29 27° SW 06:05:19 10° SSE visible
23 Nov ? 05:13:16 22° SSE 05:13:16 22° SSE 05:14:40 10° SE visible
28 Nov ? 19:09:05 10° SSW 19:10:16 17° S 19:10:16 17° S visible
